Home > Weather > San Luis Obispo > Past weeks

Flag for U.S.A. Weather for the Past 2 Weeks in San Luis Obispo, California, U.S.A.

Now
70 °F

Scattered clouds.


Feels Like: 76 °F
Forecast: 50 / 78 °F
Wind: 14 mph from Northwest

Location: San Luis Obispo County-Mc Chesney Field

Current Time: Feb 11, 2016 at 3:58:37 PM

Latest Report: Feb 11, 2016 at 2:56 PM


Visibility: 10 mi

Pressure: 30.08 "Hg

Humidity: 59%

Dew point: 55 °F

Location of San Luis ObispoLocation

Historic Weather in San Luis Obispo — Graph

°F

San Luis Obispo Temperature Yesterday

Maximum temperature yesterday: 78 °F (at 1:56 PM)
Minimum temperature yesterday: 45 °F (at 6:56 AM)
Average temperature yesterday: 61 °F

High & Low Weather Summary for the Past Weeks

 TemperatureHumidityPressure
High87 °F (Feb 9, 1:56 PM)96% (Jan 29, 7:56 PM)30.41 "Hg (Jan 29, 7:56 PM)
Low36 °F (Feb 2, 4:56 AM)17% (Feb 6, 10:56 AM)29.66 "Hg (Jan 31, 8:56 AM)
Average56 °F62%30.16 "Hg
* Reported Jan 27 12:56 PM — Feb 11 12:56 PM, San Luis Obispo, Weather by CustomWeather, © 2016

Note: Actual official high and low records may vary slightly from our data, if they occured in-between our weather recording intervals... More about our weather records

Advertising

San Luis Obispo Weather History for the Previous 24 Hours

 ConditionsComfort  
Time TempWeatherWind HumidityBarometerVisibility
12:56 PM
Thu, Feb 11
77 °FSunny.5 mph40%30.09 "Hg10 mi
11:56 AM75 °FSunny.No wind43%30.11 "Hg10 mi
10:56 AM71 °FScattered clouds.5 mph55%30.13 "Hg10 mi
9:56 AM66 °FSunny.No wind43%30.12 "Hg10 mi
8:56 AM56 °FSunny.No wind65%30.13 "Hg10 mi
7:56 AM50 °FSunny.No wind74%30.11 "Hg10 mi
6:56 AM46 °FSunny.No wind77%30.10 "Hg10 mi
5:56 AM46 °FClear.No wind77%30.10 "Hg10 mi
4:56 AM48 °FClear.No wind71%30.10 "Hg10 mi
3:56 AM48 °FClear.No wind74%30.09 "Hg10 mi
2:56 AM49 °FClear.No wind74%30.10 "Hg10 mi
1:56 AM50 °FClear.No wind71%30.10 "Hg10 mi
12:56 AM51 °FClear.No wind71%30.09 "Hg10 mi
11:56 PM
Wed, Feb 10
52 °FClear.No wind72%30.09 "Hg10 mi
10:56 PM55 °FClear.No wind64%30.10 "Hg10 mi
9:56 PM59 °FClear.No wind54%30.09 "Hg10 mi
8:56 PM62 °FClear.No wind50%30.09 "Hg10 mi
7:56 PM64 °FClear.No wind50%30.09 "Hg10 mi
6:56 PM68 °FClear.3 mph42%30.09 "Hg10 mi
5:56 PM71 °FClear.3 mph44%30.09 "Hg10 mi
4:56 PM75 °FSunny.6 mph45%30.08 "Hg10 mi
3:56 PM76 °FSunny.12 mph42%30.08 "Hg10 mi
Weather by CustomWeather, © 2016

See weather overviewHow to use our weather pages